CAPE
0 10 0 47 63 101 134 149 117 77 0 0 0 0 0 0 6 5 3 0 197 190 132 244 435 806 607 850 1163 1268 1100 907 859
1 0 0 69 101 115 162 170 147 80 28 9 0 0 0 0 0 19 11 13 27 66 32 35 78 544 715 888 1149 946 1303 1110 1144
39 18 0 62 172 185 207 253 161 162 79 42 3 0 0 0 0 15 91 83 85 123 139 14 12 32 490 869 1147 1161 1091 989 1124
0 2 4 12 244 286 267 294 222 220 176 100 29 13 4 0 0 68 160 195 140 158 286 254 211 424 413 530 819 952 1037 1224 1149
0 0 0 0 123 400 363 315 250 226 238 180 89 51 42 25 32 80 166 286 318 237 245 373 655 747 453 318 482 497 647 1121 1479
0 0 0 29 96 371 443 361 297 229 249 192 106 26 0 47 29 90 172 277 301 362 557 654 860 680 583 464 376 62 12 641 1191
0 0 14 106 106 152 473 456 362 353 365 260 159 67 0 0 72 66 124 247 242 299 369 506 564 658 680 546 495 356 281 484 875
0 2 34 63 230 114 220 379 336 646 515 428 317 191 65 0 0 81 135 193 230 332 389 455 478 562 722 766 462 406 721 1086 972
0 0 3 16 42 252 154 203 248 532 620 585 437 345 214 88 62 127 138 199 289 478 578 676 619 650 758 835 916 809 528 751 1082
0 8 6 0 1 46 81 319 143 203 446 534 430 420 393 272 96 108 162 253 419 580 764 895 860 859 840 875 843 711 648 441 1211
0 0 0 3 0 0 15 30 490 248 216 406 427 445 383 361 364 336 252 381 489 567 829 1033 965 540 710 770 821 370 159 74 643
0 0 0 1 3 0 6 7 16 551 312 407 472 549 504 404 482 607 383 299 543 854 753 759 951 652 264 138 397 333 141 0 254
0 0 0 7 35 5 4 0 0 5 639 533 797 741 674 595 718 598 813 768 598 788 830 997 854 485 349 257 495 95 56 1 170
0 0 0 24 105 95 65 0 0 0 0 152 793 862 948 1008 979 1163 920 1199 1278 758 687 408 426 533 497 217 199 177 1 1 378
0 0 0 3 38 46 67 7 0 0 0 0 27 312 1231 1227 1129 1274 1362 1276 1028 707 603 695 565 433 221 161 148 31 1 1 6
0 0 0 0 0 3 20 7 0 0 0 0 28 71 51 166 1297 1335 1171 951 797 841 705 769 594 461 363 226 1 2 0 0 0
0 0 0 0 0 0 15 0 0 0 0 0 0 0 3 0 349 1049 1080 1031 872 881 649 479 449 323 268 227 58 1 2 1 1
0 0 0 0 0 0 0 0 0 0 0 0 0 0 0 0 228 718 889 442 310 478 304 367 280 161 125 5 1 0 0 0 3
0 0 0 0 0 0 0 0 0 0 0 0 0 0 0 0 181 689 119 0 1 1 2 2 2 0 0 1 1 1 1 0 1
0 0 0 0 0 0 0 0 0 0 0 0 0 83 30 6 144 245 0 0 0 0 2 1 1 1 1 1 0 2 2 2 1
CIN
0 -514 0 -528 -509 -435 -434 -425 -386 -365 0 0 0 0 0 0 -223 -304 -313 0 -188 -169 -236 -204 -180 -155 -162 -135 -119 -113 -126 -127 -120
-81 0 0 -585 -547 -480 -435 -417 -450 -407 -415 -390 0 0 0 0 0 -230 -273 -300 -284 -280 -325 -340 -254 -185 -160 -137 -117 -149 -110 -113 -93
-478 -603 0 -639 -574 -515 -479 -421 -431 -413 -409 -404 -223 0 0 0 0 -227 -200 -241 -253 -246 -257 -389 -344 -314 -200 -148 -127 -132 -138 -126 -107
0 -170 -628 -642 -599 -556 -531 -505 -491 -434 -386 -397 -406 -400 -189 0 0 -258 -182 -208 -238 -259 -224 -218 -213 -181 -208 -195 -160 -152 -138 -111 -106
0 0 0 -37 -635 -599 -574 -537 -529 -506 -435 -434 -420 -408 -398 -403 -376 -291 -229 -184 -212 -237 -263 -212 -158 -139 -181 -217 -199 -202 -174 -113 -84
-118 -25 0 -739 -665 -629 -622 -578 -554 -550 -510 -499 -491 -520 0 -413 -422 -340 -281 -242 -239 -212 -174 -173 -136 -159 -160 -175 -202 -310 -327 -175 -101
0 0 -972 -836 -761 -706 -575 -608 -596 -561 -480 -486 -482 -517 0 0 -406 -418 -342 -283 -275 -253 -224 -190 -181 -166 -157 -161 -173 -197 -213 -171 -121
0 -204 -902 -904 -730 -748 -693 -598 -549 -473 -492 -487 -429 -423 -480 0 0 -409 -346 -326 -320 -279 -250 -210 -207 -194 -166 -152 -156 -126 -123 -99 -105
-12 -13 -789 -846 -841 -744 -726 -691 -630 -536 -456 -450 -453 -406 -399 -407 -411 -356 -340 -312 -307 -257 -224 -190 -185 -177 -175 -148 -102 -120 -121 -120 -79
0 -603 -687 0 -581 -757 -780 -671 -713 -667 -505 -438 -437 -406 -373 -356 -384 -391 -336 -289 -245 -233 -198 -150 -151 -144 -132 -123 -126 -117 -136 -164 -84
0 0 0 -677 0 0 -739 -798 -562 -604 -617 -459 -422 -402 -379 -355 -335 -325 -295 -258 -241 -245 -187 -152 -131 -170 -155 -142 -133 -172 -203 -231 -128
0 0 0 -224 -660 0 -725 -696 -752 -466 -480 -418 -375 -371 -370 -376 -332 -302 -303 -290 -252 -209 -194 -167 -158 -187 -260 -303 -225 -215 -250 0 -161
0 0 0 -433 -449 -491 -580 0 0 -750 -351 -357 -308 -315 -338 -329 -336 -309 -259 -265 -248 -188 -163 -169 -169 -224 -289 -252 -145 -198 -294 0 -147
0 0 0 -413 -300 -307 -370 0 0 0 0 -430 -281 -257 -274 -258 -266 -236 -240 -214 -171 -205 -192 -225 -207 -177 -211 -254 -200 -194 0 0 -115
0 0 0 -125 -290 -339 -333 -403 0 0 0 -143 -662 -411 -163 -206 -233 -253 -212 -170 -198 -199 -239 -176 -184 -184 -217 -249 -205 -201 0 0 -11
0 0 0 0 0 -295 -381 -444 0 0 0 0 -621 -567 -559 -469 -180 -188 -269 -211 -212 -183 -166 -163 -157 -172 -155 -186 0 0 0 0 0
0 0 0 0 0 0 -225 0 0 0 0 0 0 -38 -560 0 -335 -148 -263 -214 -212 -172 -169 -200 -204 -191 -175 -140 -131 0 0 0 0
0 0 0 0 0 0 0 0 0 0 0 0 0 0 0 0 -372 -225 -177 -200 -144 -252 -119 -292 -300 -255 -252 -66 0 0 0 0 0
0 0 0 0 0 0 0 0 0 0 0 0 0 0 0 0 -276 -144 -272 0 0 0 0 0 0 0 0 0 0 0 0 0 0
0 0 0 0 0 0 0 0 0 0 0 0 0 -225 -288 -177 -177 -181 -9 0 0 0 0 0 0 0 0 0 0 0 0 0 0
Wind_Speed
7 9 10 13 15 14 14 16 14 14 13 12 11 12 11 9 8 5 4 5 3 3 3 3 3 4 4 5 4 3 3 1 2
5 7 7 11 12 14 14 15 16 15 15 13 13 13 10 10 9 8 7 6 3 3 3 3 4 5 5 4 4 5 3 3 4
6 5 8 10 13 15 13 13 13 13 13 16 13 13 11 10 10 9 8 5 6 6 3 3 4 5 4 4 4 4 4 3 3
8 6 7 10 13 15 14 12 14 15 13 13 12 12 11 10 10 10 8 7 6 6 5 5 5 4 5 4 4 4 4 4 4
9 6 7 6 10 13 13 14 14 16 13 13 13 12 12 11 10 11 10 9 8 6 6 5 6 5 4 5 5 4 5 6 4
10 7 8 6 7 12 14 14 13 15 14 14 13 12 11 11 10 12 13 12 10 9 8 7 6 5 5 6 6 5 6 6 6
14 12 10 3 3 7 7 10 13 13 13 12 12 13 14 13 13 13 13 11 10 11 10 9 8 7 7 7 6 7 7 7 6
16 16 15 13 6 3 5 7 5 7 10 12 12 12 13 14 12 11 11 10 11 11 10 10 9 8 7 7 6 6 7 7 7
14 15 15 14 12 10 4 6 7 9 10 12 11 12 12 9 9 10 10 10 10 9 9 9 8 8 8 8 7 10 13 10 8
10 13 13 11 10 9 9 7 6 11 11 9 10 11 9 10 9 10 11 9 9 10 9 8 9 8 6 7 7 10 14 14 8
9 11 13 12 9 10 7 6 8 4 7 11 11 12 10 10 11 10 7 8 9 8 7 10 8 8 8 6 4 11 14 14 9
6 9 10 10 9 9 7 7 7 8 4 8 10 13 14 13 13 12 10 11 11 9 10 9 9 9 9 6 5 7 14 9 8
7 8 9 10 11 8 9 7 6 8 4 5 10 11 13 12 12 13 13 14 12 9 9 10 8 8 8 12 11 8 8 11 6
7 7 9 8 7 8 10 9 2 6 5 6 6 6 6 8 12 14 15 13 10 11 9 6 8 8 7 6 8 6 7 12 5
20 13 5 7 7 8 9 7 5 5 8 8 6 4 5 9 12 11 9 11 10 9 9 9 9 7 5 4 5 7 8 7 5
15 21 10 4 7 9 8 7 4 8 7 6 5 5 6 7 7 9 9 10 9 8 9 9 8 7 6 5 4 3 5 4 6
14 16 14 6 5 8 8 6 7 10 9 7 3 5 9 9 7 7 6 6 8 9 9 9 9 8 9 7 6 5 4 4 4
14 14 15 8 8 10 9 6 9 11 10 7 7 7 8 10 7 6 6 4 4 7 6 9 11 8 8 9 7 8 9 9 6
14 14 14 11 12 11 10 7 8 10 11 10 10 10 9 8 8 8 6 7 5 14 6 3 11 8 7 3 4 11 13 11 10
16 14 14 13 14 13 10 10 11 10 9 10 12 10 9 8 9 8 7 9 9 9 4 5 9 7 7 7 9 9 11 12 11
Wind_Direction
204 203 183 183 182 186 181 176 172 176 179 183 184 183 189 194 189 191 208 207 206 219 208 211 190 201 192 214 219 228 216 229 236
213 202 189 182 182 190 190 185 177 180 179 187 190 192 183 186 190 188 208 204 199 231 224 226 226 209 198 221 216 210 197 220 240
241 205 185 177 186 192 195 186 182 180 187 191 191 193 193 186 188 192 207 184 197 218 234 234 232 218 217 214 219 216 195 222 220
321 279 210 191 194 193 192 183 179 179 185 182 186 190 196 191 185 186 202 203 199 205 192 207 225 226 222 224 226 197 218 224 231
311 298 257 245 198 185 187 186 180 183 185 181 185 194 190 196 190 183 194 209 194 202 209 203 214 208 226 220 230 198 216 226 218
349 316 307 205 191 196 184 187 188 186 182 188 182 176 193 196 191 192 202 203 198 190 212 205 210 198 214 218 225 206 217 228 226
356 354 350 316 193 193 216 195 189 186 186 181 188 181 186 198 203 203 204 201 202 195 203 209 208 211 210 212 222 212 210 217 224
358 1 1 5 353 220 204 199 187 197 189 178 183 192 189 200 202 206 208 201 202 205 197 214 213 211 211 209 210 226 219 216 219
354 355 359 352 356 5 307 208 178 196 194 197 181 189 209 197 190 194 202 206 206 207 201 206 203 213 211 211 220 216 214 209 218
353 341 344 345 344 342 337 320 221 201 196 178 187 198 188 192 201 196 203 201 194 207 205 185 201 211 209 222 232 224 219 218 221
338 338 332 331 322 325 318 324 325 266 180 186 192 197 189 186 194 206 200 204 201 199 200 197 189 175 181 187 220 244 249 231 217
309 307 306 303 307 301 308 320 328 326 225 186 195 205 205 195 198 199 199 219 215 203 201 203 193 193 183 177 239 224 231 232 227
300 286 293 299 310 309 300 302 337 320 350 232 213 205 215 207 195 207 204 207 215 214 207 206 195 200 182 180 213 225 216 205 211
300 236 282 285 287 293 298 291 337 307 309 277 253 234 227 206 195 197 209 207 207 197 186 200 201 203 191 187 180 178 205 209 196
302 299 229 269 268 269 268 275 260 259 269 260 269 256 255 212 212 198 192 199 194 202 172 179 184 178 170 153 150 167 192 174 190
286 291 297 246 239 267 281 276 250 255 254 262 263 278 256 262 253 210 171 185 191 177 189 178 174 167 172 167 156 166 161 192 206
280 279 285 282 254 239 259 240 245 253 256 257 247 249 263 257 231 224 164 182 180 173 184 184 171 173 174 172 179 185 178 184 178
274 273 283 277 265 273 251 244 221 235 245 236 245 241 239 248 258 223 173 151 174 183 199 188 167 181 169 169 188 201 180 173 183
269 271 274 273 273 266 258 253 242 226 213 213 230 238 238 232 231 231 170 153 113 46 49 95 88 121 154 138 114 153 162 170 162
266 265 265 260 264 266 262 268 270 259 208 209 226 239 224 215 208 203 176 175 162 152 97 63 78 110 121 120 152 152 135 129 119